Location: Unspecified
(48.8656°N, 0.0000°E)
Time: 15:10:58
(UTC+00:00)

Tiangong 2 - Pass Details

Date: 22 May 2019
Orbit: 376 x 389 km, 42.8° (Epoch: 19 June)

Event Time Altitude Azimuth Distance (km) Brightness Sun altitude
Rises 20:32:18 0° 235° (SW) 2,232 5.1 -7.1°
Reaches altitude 10° 20:34:39 10° 218° (SW) 1,381 3.8 -7.4°
Maximum altitude 20:37:04 21° 167° (SSE) 913 2.5 -7.7°
Enters shadow 20:39:29 10° 116° (ESE) 1,375 3.3 -8.0°
